Date String (YYYY-MM-DD hh:mm:ss) UTC,Instrument flags,Ambient pressure (hPa),Sample flow (lpm),Bypass flow (lpm),Sample temperature (°C),Ambient temperature (°C),ASC tube jacket temperature (°C),LED temperature (°C),Box temperature (°C),Sample RH (%),Span deviation,Mass concentration (μg/m³),Mass concentration (μg/m³),Mass concentration (μg/m³)
DateTimeUTC,F1_M11,P_M11,Q1_M11,Q2_M11,T1_M11,T2_M11,T3_M11,T4_M11,T5_M11,U1_M11,ZSPAN_M11,X0_M11,X2_M11,X1_M11
2022-03-14 10:00:00,,0823.8,5.00,0.00,25.0,24.1,00.0,34.0,26.8,07.8,0000.0,0002.64,0001.11,0000.53
2022-03-14 10:01:00,,0823.8,4.99,0.00,25.0,24.1,00.0,34.0,26.8,07.8,0000.0,0002.64,0001.15,0000.53
2022-03-14 10:02:00,,0823.8,5.00,0.00,25.0,24.1,00.0,34.0,26.8,07.9,0000.0,0002.68,0001.18,0000.53
2022-03-14 10:03:00,,0823.8,5.01,0.00,25.0,24.1,00.0,34.0,26.8,07.8,0000.0,0002.61,0001.18,0000.53
2022-03-14 10:04:00,,0823.8,5.00,0.00,25.0,24.1,00.0,33.9,26.8,07.8,0000.0,0002.73,0001.22,0000.54
2022-03-14 10:05:00,,0823.8,5.01,0.00,25.0,24.1,00.0,33.9,26.8,07.9,0000.0,0002.74,0001.23,0000.54
2022-03-14 10:06:00,,0823.8,4.99,0.00,25.0,24.1,00.0,33.9,26.8,07.9,0000.0,0002.73,0001.20,0000.54
2022-03-14 10:07:00,,0823.8,4.99,0.00,25.0,24.1,00.0,33.9,26.8,07.8,0000.0,0002.53,0001.12,0000.54
2022-03-14 10:08:00,,0823.9,5.01,0.00,25.0,24.1,00.0,34.0,26.8,07.9,0000.0,0002.54,0001.13,0000.54
2022-03-14 10:09:00,,0823.9,5.00,0.00,25.0,24.1,00.0,34.0,26.8,07.9,0000.0,0002.46,0001.13,0000.54
2022-03-14 10:10:00,,0823.9,4.99,0.00,25.0,24.1,00.0,34.0,26.8,07.9,0000.0,0002.25,0001.11,0000.54
2022-03-14 10:11:00,,0823.9,5.01,0.00,25.0,24.1,00.0,34.0,26.8,07.9,0000.0,0002.21,0001.10,0000.53
2022-03-14 10:12:00,,0824.0,5.01,0.00,25.0,24.1,00.0,34.0,26.8,07.9,0000.0,0002.41,0001.13,0000.53
2022-03-14 10:13:00,,0824.0,5.00,0.00,25.0,24.1,00.0,33.9,26.8,07.9,0000.0,0002.37,0001.10,0000.53
2022-03-14 10:14:00,,0824.1,5.01,0.00,25.0,24.1,00.0,33.9,26.8,08.0,0000.0,0002.36,0001.07,0000.52
2022-03-14 10:15:00,,0824.0,4.99,0.00,25.0,24.1,00.0,33.9,26.8,08.0,0000.0,0002.44,0001.06,0000.52
2022-03-14 10:16:00,,0824.0,5.01,0.00,25.0,24.1,00.0,33.9,26.8,08.0,0000.0,0002.53,0001.06,0000.52
2022-03-14 10:17:00,,0824.1,5.01,0.00,25.0,24.1,00.0,33.9,26.8,08.0,0000.0,0002.51,0001.06,0000.51
2022-03-14 10:18:00,,0824.1,4.98,0.00,25.0,24.1,00.0,33.9,26.8,08.0,0000.0,0002.58,0001.08,0000.50
2022-03-14 10:19:00,,0824.1,5.00,0.00,25.0,24.1,00.0,33.9,26.8,07.9,0000.0,0002.49,0001.05,0000.49
2022-03-14 10:20:00,,0824.1,5.00,0.00,25.0,24.0,00.0,33.9,26.8,07.7,0000.0,0002.55,0001.04,0000.47
2022-03-14 10:21:00,,0824.0,5.01,0.00,25.0,24.1,00.0,33.9,26.7,07.6,0000.0,0002.66,0001.09,0000.48
2022-03-14 10:22:00,,0824.1,5.00,0.00,24.9,24.1,00.0,33.9,26.7,07.7,0000.0,0002.65,0001.08,0000.48
2022-03-14 10:23:00,,0824.1,4.98,0.00,24.9,24.0,00.0,33.9,26.7,07.7,0000.0,0002.60,0001.05,0000.48
2022-03-14 10:24:00,,0824.1,5.00,0.00,24.9,24.0,00.0,33.9,26.7,07.6,0000.0,0002.73,0001.06,0000.49
2022-03-14 10:25:00,,0824.1,5.01,0.00,24.9,24.0,00.0,33.9,26.7,07.5,0000.0,0002.64,0001.03,0000.48
2022-03-14 10:26:00,,0824.1,5.00,0.00,24.9,24.0,00.0,33.9,26.7,07.5,0000.0,0002.51,0000.98,0000.48
2022-03-14 10:27:00,,0824.1,5.00,0.00,24.9,24.0,00.0,33.9,26.7,07.5,0000.0,0002.36,0000.95,0000.48
2022-03-14 10:28:00,,0824.1,5.00,0.00,24.9,24.0,00.0,33.9,26.7,07.4,0000.0,0002.31,0000.95,0000.47
2022-03-14 10:29:00,,0824.2,4.98,0.00,24.9,24.0,00.0,33.9,26.7,07.5,0000.0,0002.45,0000.96,0000.47
2022-03-14 10:30:00,,0824.2,5.00,0.00,24.9,24.0,00.0,33.9,26.7,07.5,0000.0,0002.59,0001.00,0000.47
2022-03-14 10:31:00,,0824.2,5.00,0.00,24.9,24.0,00.0,33.9,26.7,07.4,0000.0,0002.64,0001.00,0000.47
2022-03-14 10:32:00,,0824.2,5.00,0.00,24.9,24.0,00.0,33.8,26.7,07.4,0000.0,0002.63,0000.99,0000.46
2022-03-14 10:33:00,,0824.3,5.01,0.00,24.9,24.0,00.0,33.8,26.7,07.4,0000.0,0002.66,0001.00,0000.46
2022-03-14 10:34:00,,0824.3,5.00,0.00,24.8,24.0,00.0,33.8,26.7,07.4,0000.0,0002.49,0000.97,0000.46
2022-03-14 10:35:00,,0824.3,5.01,0.00,24.8,23.9,00.0,33.8,26.6,07.4,0000.0,0002.19,0000.91,0000.44
2022-03-14 10:36:00,,0824.3,5.01,0.00,24.8,23.9,00.0,33.8,26.6,07.4,0000.0,0002.14,0000.90,0000.44
2022-03-14 10:37:00,,0824.2,4.98,0.00,24.8,23.9,00.0,33.8,26.6,07.4,0000.0,0002.01,0000.90,0000.44
2022-03-14 10:38:00,,0824.3,5.01,0.00,24.8,23.9,00.0,33.8,26.6,07.4,0000.0,0002.05,0000.92,0000.44
2022-03-14 10:39:00,,0824.3,5.01,0.00,24.8,23.9,00.0,33.8,26.6,07.3,0000.0,0002.15,0000.96,0000.45
2022-03-14 10:40:00,,0824.3,5.00,0.00,24.8,23.9,00.0,33.8,26.6,07.4,0000.0,0001.97,0000.93,0000.45
2022-03-14 10:41:00,,0824.3,4.98,0.00,24.8,23.9,00.0,33.8,26.6,07.4,0000.0,0001.83,0000.90,0000.46
2022-03-14 10:42:00,,0824.3,5.01,0.00,24.8,23.9,00.0,33.8,26.6,07.3,0000.0,0001.77,0000.89,0000.46
2022-03-14 10:43:00,,0824.3,5.00,0.00,24.8,23.9,00.0,33.8,26.6,07.3,0000.0,0001.75,0000.87,0000.46
2022-03-14 10:44:00,,0824.3,4.99,0.00,24.8,23.9,00.0,33.8,26.6,07.3,0000.0,0001.72,0000.84,0000.46
2022-03-14 10:45:00,,0824.3,5.00,0.00,24.7,23.9,00.0,33.7,26.6,07.3,0000.0,0001.62,0000.80,0000.46
2022-03-14 10:46:00,,0824.3,4.99,0.00,24.7,23.9,00.0,33.7,26.6,07.4,0000.0,0001.80,0000.84,0000.47
2022-03-14 10:47:00,,0824.2,5.00,0.00,24.7,23.9,00.0,33.7,26.5,07.4,0000.0,0001.97,0000.91,0000.48
2022-03-14 10:48:00,,0824.3,5.00,0.00,24.7,23.9,00.0,33.7,26.5,07.4,0000.0,0001.95,0000.91,0000.48
2022-03-14 10:49:00,,0824.3,5.01,0.00,24.7,23.9,00.0,33.7,26.5,07.4,0000.0,0002.02,0000.94,0000.48
2022-03-14 10:50:00,,0824.3,5.00,0.00,24.7,23.8,00.0,33.7,26.5,07.4,0000.0,0001.96,0000.92,0000.46
2022-03-14 10:51:00,,0824.3,5.00,0.00,24.7,23.8,00.0,33.7,26.5,07.3,0000.0,0002.07,0000.95,0000.46
2022-03-14 10:52:00,,0824.2,5.00,0.00,24.7,23.8,00.0,33.7,26.5,07.4,0000.0,0002.29,0001.00,0000.46
2022-03-14 10:53:00,,0824.2,4.99,0.00,24.7,23.8,00.0,33.7,26.5,07.4,0000.0,0002.33,0001.01,0000.46
2022-03-14 10:54:00,,0824.2,5.00,0.00,24.7,23.8,00.0,33.7,26.4,07.4,0000.0,0002.19,0001.01,0000.47
2022-03-14 10:55:00,,0824.3,5.00,0.00,24.7,23.8,00.0,33.7,26.4,07.6,0000.0,0002.24,0001.03,0000.47
2022-03-14 10:56:00,,0824.3,5.00,0.00,24.6,23.7,00.0,33.7,26.4,07.6,0000.0,0002.38,0001.07,0000.46
2022-03-14 10:57:00,,0824.3,4.99,0.00,24.6,23.7,00.0,33.7,26.4,07.6,0000.0,0002.39,0001.08,0000.45
2022-03-14 10:58:00,,0824.3,5.00,0.00,24.6,23.7,00.0,33.7,26.4,07.7,0000.0,0002.28,0001.02,0000.44
2022-03-14 10:59:00,,0824.3,5.01,0.00,24.6,23.7,00.0,33.7,26.3,07.9,0000.0,0002.23,0000.99,0000.43
